Theta_e
311 309 311 311 313 315 317 318 320 319 318 317 319 319 318 316 316 316 316 315 314 314 313 318 332 344 345 345 344 342 341 340 342 343 343 342 342 341 340 338 340 340 340 338
318 313 311 310 312 314 315 316 317 317 318 318 318 318 317 316 316 316 316 315 313 312 312 312 317 336 344 343 343 343 341 340 342 342 342 342 342 342 339 340 342 343 343 343
316 318 318 314 313 314 314 315 315 316 316 315 316 316 315 315 315 315 316 316 315 314 314 312 313 335 344 343 343 343 342 341 344 345 344 344 344 345 344 343 343 344 344 344
317 315 317 317 319 317 318 315 317 320 320 319 314 317 314 314 314 314 315 314 315 315 314 314 312 333 343 344 344 344 343 343 342 347 349 348 347 347 348 346 345 346 347 347
315 317 317 318 317 319 318 320 322 321 323 322 322 319 319 313 314 314 314 315 315 314 313 313 312 322 343 344 345 345 344 344 344 344 349 350 350 349 348 351 350 350 349 351
313 313 313 316 317 317 319 319 320 321 322 329 323 320 321 318 314 315 315 315 316 315 313 312 312 312 333 343 345 345 345 344 345 346 347 350 350 351 351 351 353 352 354 354
306 309 313 316 315 315 317 320 319 326 328 326 321 322 321 318 315 313 313 313 313 314 313 312 311 310 315 341 343 344 345 344 346 348 349 348 347 349 351 351 353 353 353 353
309 310 311 310 312 313 316 319 318 324 327 324 321 326 322 318 317 317 315 312 313 314 313 310 311 312 313 338 343 343 344 343 345 348 349 351 350 350 351 351 352 352 352 350
311 313 313 313 315 317 318 320 317 321 322 323 322 320 318 317 317 315 313 314 312 314 314 313 311 310 314 330 347 345 344 345 346 347 348 352 350 349 353 353 351 350 349 347
312 312 313 315 314 317 320 318 321 318 321 325 322 321 320 316 315 320 322 321 321 322 322 316 311 309 313 323 347 349 347 347 349 350 351 353 353 352 352 351 348 349 347 346
312 312 315 313 316 318 319 320 319 316 317 319 319 317 315 316 324 325 323 323 322 321 323 324 315 311 312 320 338 352 351 351 353 355 352 352 351 350 350 348 347 345 344 341
311 314 315 316 316 318 320 320 318 317 318 320 318 318 323 324 325 325 324 323 321 321 330 326 319 311 309 323 332 347 354 353 354 353 349 346 347 347 346 344 344 342 339 336
312 316 314 310 317 316 318 317 318 320 322 322 320 318 317 320 321 322 322 321 322 323 326 335 326 310 310 324 333 344 352 351 348 346 343 342 342 342 339 339 338 335 332 326
311 314 311 310 310 313 316 317 318 317 317 319 323 320 317 317 318 320 319 318 321 322 324 335 322 317 314 325 335 348 347 344 341 337 335 332 332 334 330 329 328 325 322 318
311 316 312 313 314 313 315 315 314 315 315 318 316 321 319 319 323 322 322 321 322 323 325 333 334 326 329 336 344 342 339 335 332 328 325 320 320 320 319 318 315 316 315 313
305 313 311 311 312 313 315 315 315 315 315 315 316 317 316 317 325 326 324 322 323 327 332 342 340 341 342 342 340 336 331 326 323 320 318 316 316 315 313 313 312 312 310 309
307 305 306 310 312 312 316 318 321 323 323 318 317 318 317 327 328 328 329 321 328 327 333 336 334 334 332 333 331 327 323 321 319 317 315 314 313 312 311 310 311 308 307 306
308 308 310 311 310 311 320 317 317 318 324 321 316 324 328 326 323 322 322 325 323 324 322 325 325 324 322 321 321 320 319 318 316 315 313 312 311 309 309 310 308 306 305 304
307 309 310 316 312 313 320 318 317 317 320 320 326 328 327 323 321 321 320 319 319 319 317 317 318 319 318 319 318 317 315 314 313 313 311 310 309 308 307 306 305 304 304 302
314 309 313 315 317 319 319 313 312 316 328 317 322 327 325 323 323 320 316 314 313 313 312 312 311 313 313 313 313 314 313 312 311 309 308 308 308 307 306 306 305 304 303 300
315 313 313 314 317 317 313 311 312 330 325 314 316 323 321 321 318 314 311 310 309 308 308 308 308 307 308 309 310 311 310 310 309 308 307 307 307 307 306 306 305 303 301 299
315 315 317 316 317 317 309 311 318 314 312 314 320 318 316 315 313 312 311 310 309 308 307 306 306 307 306 306 307 307 308 307 307 306 306 306 306 306 305 304 303 302 300 298
316 314 314 313 313 309 311 312 311 311 313 315 318 316 314 313 312 311 309 307 306 305 305 306 305 305 305 306 306 305 305 305 304 304 304 303 304 305 305 304 303 302 301 298
311 311 313 313 312 311 311 311 311 317 319 318 315 314 312 312 310 309 308 306 305 304 304 304 305 305 305 305 306 305 304 304 304 301 301 303 303 302 303 303 303 303 302 299
309 311 312 312 311 311 311 311 312 316 315 314 314 313 312 310 310 308 307 306 305 304 303 303 303 303 304 305 304 304 303 303 300 299 299 299 299 299 299 299 300 302 301 302
308 312 312 311 312 312 311 311 311 311 313 313 312 311 310 310 309 308 307 306 305 304 303 302 302 302 302 303 303 303 303 302 300 298 297 296 296 296 296 296 295 296 297 297
Wind_Speed
4 4 12 8 10 11 8 13 14 11 6 7 15 21 12 6 9 9 10 9 9 10 10 19 30 36 37 41 41 39 38 39 40 33 33 29 30 34 33 33 30 27 25 26
2 11 10 13 10 11 11 13 16 15 15 13 20 28 16 12 13 8 10 10 11 9 6 8 16 30 30 34 37 37 39 38 40 34 33 25 27 29 33 32 31 27 26 26
14 8 14 11 13 13 14 14 13 11 12 12 16 24 15 9 11 13 8 9 10 14 14 9 12 23 28 31 35 41 40 43 38 32 30 23 25 20 26 30 31 30 29 28
7 3 11 10 10 8 13 11 9 11 4 5 5 14 10 6 12 10 14 9 13 14 9 12 14 15 27 34 39 40 44 44 41 38 36 33 32 23 27 29 35 32 29 27
7 11 11 12 12 7 15 5 4 8 6 3 4 4 4 7 7 9 10 11 10 12 11 14 11 22 33 33 36 39 41 41 41 45 41 39 29 28 26 27 30 27 29 25
14 3 3 6 12 11 2 4 1 1 5 6 12 7 9 9 9 7 6 9 9 9 10 10 13 21 29 34 34 35 38 41 40 42 43 42 33 29 26 30 29 28 26 23
11 15 9 9 18 11 4 4 2 3 6 6 9 8 16 9 9 11 11 10 10 9 8 9 10 11 16 27 33 34 34 36 37 39 39 44 40 34 35 32 29 28 24 22
4 5 9 12 22 13 9 13 5 6 4 2 2 6 12 16 14 14 13 11 10 8 8 9 12 14 17 27 32 35 37 34 34 37 36 37 39 32 29 29 29 28 25 20
5 5 7 7 5 7 4 8 10 4 2 1 4 7 17 6 11 7 11 10 8 8 8 10 9 10 17 22 30 35 35 37 37 35 31 28 29 28 28 25 22 16 16 19
5 6 8 5 3 5 5 5 4 1 4 4 5 5 14 3 2 3 4 7 7 7 9 8 7 9 16 22 31 33 36 37 37 34 32 33 32 31 28 21 22 23 26 22
7 7 4 3 4 2 1 1 2 3 3 4 2 7 5 8 4 4 6 7 8 8 10 11 9 7 21 22 24 30 32 31 29 29 30 33 32 29 27 23 20 22 28 31
3 5 4 6 4 2 2 0 4 3 3 4 3 11 5 6 5 5 7 8 8 7 13 12 11 10 9 17 21 25 27 33 32 36 31 31 32 32 29 29 28 32 33 30
4 3 3 6 6 3 4 1 2 3 0 9 2 6 4 6 6 7 6 8 7 7 10 11 9 9 10 15 21 26 29 29 33 34 35 33 36 34 34 37 38 36 37 32
5 4 5 4 3 1 3 5 4 4 3 3 10 20 13 10 11 9 6 8 8 7 7 9 9 9 11 17 26 28 26 31 33 36 37 38 39 40 40 39 39 37 35 34
3 4 3 8 10 9 12 15 13 13 14 10 8 9 13 9 8 7 6 7 10 6 10 8 5 10 14 15 24 28 30 31 36 38 39 39 43 43 43 42 40 39 34 31
6 4 4 5 11 10 12 11 11 14 15 15 17 24 18 14 5 6 9 6 6 4 10 6 8 15 17 19 26 32 31 31 36 40 40 44 44 45 43 45 40 35 32 29
5 2 3 4 7 11 7 4 6 9 12 11 15 13 11 3 3 4 6 1 5 9 9 9 12 13 12 16 25 31 35 37 40 42 34 40 42 43 40 41 38 33 31 27
6 2 3 4 6 2 4 9 9 14 8 8 7 3 6 7 8 10 10 3 3 14 16 7 14 17 25 25 28 31 34 35 41 41 38 38 38 40 40 40 36 32 29 27
14 5 3 3 2 7 0 5 7 7 6 16 3 7 10 10 12 13 13 11 7 19 14 10 18 27 28 28 28 33 29 33 36 36 38 36 37 36 38 41 35 31 30 29
5 10 3 1 3 4 2 14 20 11 3 14 13 9 7 2 5 4 8 12 15 17 15 10 24 26 29 28 31 28 29 33 32 32 33 35 37 35 38 39 35 31 30 31
2 2 8 5 3 6 9 23 18 2 4 18 13 3 7 6 6 7 10 17 18 20 20 27 31 30 27 29 32 25 26 30 32 35 35 37 34 37 38 36 33 32 32 30
3 5 2 3 2 4 16 16 6 7 13 12 1 15 16 13 14 13 13 15 17 18 21 27 28 29 31 33 34 29 23 27 33 35 33 34 33 32 34 34 32 32 32 29
2 4 3 2 1 8 13 11 11 13 13 6 13 13 18 15 15 14 14 16 16 16 21 26 30 31 31 35 31 29 20 22 32 34 35 29 32 31 29 32 32 31 28 27
5 5 3 4 3 9 15 14 14 7 8 11 13 16 17 19 17 16 15 15 16 18 23 26 27 26 25 27 28 26 17 25 33 27 31 31 30 29 27 26 26 26 24 23
3 8 7 4 7 6 14 16 14 10 14 14 14 15 16 18 16 18 16 15 13 20 25 24 24 22 19 22 22 23 23 28 25 28 30 29 28 28 27 25 22 21 18 17
4 4 4 4 12 4 11 14 17 17 14 15 18 16 15 19 17 17 15 16 19 20 22 21 21 21 18 18 20 21 22 24 26 27 25 24 25 25 26 27 25 20 17 15
Wind_Direction
212 175 229 206 211 231 255 265 266 262 286 323 276 282 289 271 250 250 238 234 221 233 210 187 183 190 192 194 193 191 190 192 189 190 190 195 201 204 212 213 211 208 212 218
271 226 215 216 226 229 239 252 263 272 264 258 272 277 276 261 259 235 225 236 223 231 205 179 189 190 191 192 193 190 191 190 190 191 193 195 197 208 213 215 213 211 212 216
240 236 218 215 227 232 237 243 254 253 265 257 273 277 269 253 259 247 231 220 231 222 218 191 183 188 193 194 192 193 191 194 190 192 188 191 195 202 206 216 222 218 218 220
279 299 261 240 236 218 247 238 263 292 240 247 154 277 262 242 242 230 241 218 228 227 229 220 175 182 191 198 197 195 194 195 191 191 188 187 186 190 205 207 214 217 217 219
239 300 308 283 252 212 257 136 240 284 302 279 261 271 271 180 244 247 235 242 223 227 203 213 194 187 190 196 196 197 197 195 192 192 192 193 196 198 201 199 208 214 217 215
247 221 227 284 273 242 151 227 291 242 238 231 231 194 265 238 205 245 253 242 232 226 229 208 211 189 194 192 195 196 194 198 196 194 196 196 198 194 187 194 197 195 199 196
320 254 237 215 280 260 166 118 274 248 211 234 226 213 248 288 259 227 243 260 253 244 232 215 187 199 180 190 192 193 196 199 194 195 198 202 207 202 198 198 194 191 186 186
270 300 213 211 218 232 193 197 184 218 226 276 226 214 258 219 252 242 250 251 263 265 243 219 204 194 197 188 186 190 195 197 194 193 196 201 208 203 208 207 204 201 197 188
291 259 289 302 250 175 191 193 222 199 199 293 206 263 281 204 251 231 244 254 265 274 265 248 220 207 201 181 183 188 194 195 194 194 195 200 197 195 201 210 216 216 184 169
263 279 260 269 316 245 198 174 115 273 179 220 240 230 233 357 284 205 317 293 298 298 295 286 251 210 207 201 187 188 189 191 195 192 187 191 192 203 206 204 211 169 146 155
258 214 256 320 202 231 189 180 74 126 138 214 242 252 218 210 224 271 277 272 282 280 272 263 263 228 205 204 187 189 185 182 179 178 174 180 187 188 187 176 168 150 140 145
334 306 252 244 357 242 110 169 169 144 190 236 262 255 181 165 202 220 275 278 287 271 289 247 231 228 194 183 179 182 182 172 172 170 167 157 162 163 155 152 152 143 140 146
337 309 331 333 354 29 57 121 117 92 171 237 203 271 192 237 235 218 266 284 277 284 317 275 239 208 183 172 163 164 165 158 153 154 145 140 141 146 141 142 141 143 143 141
290 265 206 209 193 139 272 220 201 162 208 268 241 264 256 300 308 293 263 283 271 259 294 289 240 212 177 161 155 151 143 146 147 139 135 128 131 136 135 135 136 137 137 135
227 280 291 271 278 279 263 263 259 234 232 235 257 272 270 253 274 277 293 306 279 296 309 290 212 154 146 143 141 135 132 139 137 126 120 119 124 127 130 130 133 133 132 126
351 298 332 285 260 261 273 269 257 247 248 242 255 275 277 272 268 307 295 300 284 318 286 142 144 132 135 142 141 129 128 129 126 118 120 122 123 125 124 129 130 129 126 123
297 311 337 266 334 311 281 260 258 261 262 247 229 241 293 306 296 293 312 341 357 38 56 97 93 94 93 115 131 128 125 128 121 116 119 118 120 120 123 127 128 127 124 122
251 284 271 286 332 313 83 41 339 324 360 242 212 226 117 99 57 27 13 114 37 82 64 61 99 93 90 93 98 111 118 119 118 119 119 118 117 121 127 128 127 127 124 120
218 212 261 273 261 279 243 44 1 336 308 11 122 128 121 104 74 31 19 47 57 91 87 44 81 92 96 99 106 108 111 112 113 117 117 117 121 123 125 124 131 129 125 117
226 200 217 300 346 289 340 339 325 304 254 11 358 138 153 311 71 22 16 61 64 77 71 77 74 84 85 88 98 106 110 108 106 106 108 116 124 124 123 130 132 130 125 119
328 185 231 266 251 273 353 330 317 231 326 327 319 7 65 76 71 77 60 64 63 65 75 76 72 69 71 78 92 90 101 96 104 109 114 119 124 126 128 130 132 130 125 122
336 311 15 310 323 314 345 327 6 298 297 296 190 105 97 91 91 79 68 69 71 74 71 72 74 72 69 74 80 74 76 100 105 106 106 110 116 122 130 130 132 132 132 128
356 347 308 324 296 287 307 299 289 279 279 292 116 108 104 94 86 83 78 71 69 67 69 76 82 80 74 75 73 70 66 87 96 100 101 112 124 128 133 135 137 137 139 136
335 355 341 315 298 325 339 340 335 343 113 106 112 108 100 100 94 82 77 75 73 73 74 75 77 77 81 87 95 98 101 110 103 110 115 120 122 124 125 129 138 145 144 141
314 317 327 314 337 342 2 358 0 48 70 84 83 93 100 99 95 99 93 88 81 74 68 69 74 73 76 96 110 127 123 118 122 113 115 120 120 118 113 111 122 132 142 144
318 339 9 17 3 354 13 10 35 45 64 78 90 88 87 94 93 90 84 83 80 78 79 74 64 70 67 89 106 121 130 132 123 114 119 121 121 121 119 115 105 103 114 120